When you browse on this site, cookies collect data to enhance your experience and personalize the content and advertising you see.
Visit our Privacy Policy to learn more. By continuing to use the site, you agree to this use of cookies and data.
  • en Suisse
  • Liste des pays
  • À 7 jours
  • Température de l'eau
  • Carte météo
  • Widgets météo
  • user-avatar
    Se connecter

    Météo par heure à Biskra

    Ce jour, 7 Juin, Dimanche

    Heure Température Précipitation Vent Pression Humidité
    00:00 +34°C° 0 mm 5 m/s 747 mmHg 20%
    01:00 +33°C° 0 mm 5 m/s 747 mmHg 20%
    02:00 +33°C° 0 mm 5 m/s 746 mmHg 21%
    03:00 +33°C° 0 mm 6 m/s 746 mmHg 21%
    04:00 +33°C° 0 mm 7 m/s 746 mmHg 22%
    05:00 +33°C° 0 mm 8 m/s 746 mmHg 23%
    06:00 +33°C° 0 mm 9 m/s 746 mmHg 23%
    07:00 +34°C° 0 mm 8 m/s 746 mmHg 22%
    08:00 +35°C° 0 mm 8 m/s 746 mmHg 20%
    09:00 +38°C° 0 mm 7 m/s 746 mmHg 19%
    10:00 +39°C° 0 mm 5 m/s 746 mmHg 18%
    11:00 +40°C° 0 mm 4 m/s 746 mmHg 18%
    12:00 +40°C° 0 mm 2 m/s 746 mmHg 17%
    13:00 +41°C° 0 mm 4 m/s 746 mmHg 17%
    14:00 +41°C° 0 mm 6 m/s 745 mmHg 17%
    15:00 +43°C° 0 mm 7 m/s 745 mmHg 17%
    16:00 +41°C° 0 mm 8 m/s 745 mmHg 18%
    17:00 +39°C° 0 mm 9 m/s 746 mmHg 19%
    18:00 +38°C° 0 mm 10 m/s 746 mmHg 20%
    19:00 +37°C° 0 mm 10 m/s 747 mmHg 23%
    20:00 +36°C° 0 mm 10 m/s 748 mmHg 26%
    21:00 +34°C° 0 mm 11 m/s 748 mmHg 29%
    22:00 +33°C° 0 mm 9 m/s 748 mmHg 30%
    23:00 +33°C° 0 mm 7 m/s 748 mmHg 32%

    Demain, 8 Juin, Lundi

    Heure Température Précipitation Vent Pression Humidité
    00:00 +32°C° 0 mm 6 m/s 748 mmHg 33%
    01:00 +32°C° 0 mm 5 m/s 748 mmHg 34%
    02:00 +30°C° 0 mm 4 m/s 748 mmHg 34%
    03:00 +29°C° 0 mm 3 m/s 748 mmHg 35%
    04:00 +29°C° 0 mm 3 m/s 748 mmHg 34%
    05:00 +29°C° 0 mm 4 m/s 748 mmHg 34%
    06:00 +29°C° 0 mm 5 m/s 749 mmHg 34%
    07:00 +30°C° 0 mm 5 m/s 749 mmHg 31%
    08:00 +32°C° 0 mm 5 m/s 749 mmHg 29%
    09:00 +33°C° 0 mm 5 m/s 749 mmHg 26%
    10:00 +34°C° 0 mm 5 m/s 749 mmHg 24%
    11:00 +35°C° 0 mm 5 m/s 748 mmHg 22%
    12:00 +36°C° 0 mm 5 m/s 748 mmHg 19%
    13:00 +36°C° 0 mm 4 m/s 748 mmHg 20%
    14:00 +36°C° 0 mm 4 m/s 747 mmHg 20%
    15:00 +36°C° 0 mm 4 m/s 747 mmHg 20%
    16:00 +36°C° 0 mm 4 m/s 747 mmHg 21%
    17:00 +36°C° 0 mm 4 m/s 747 mmHg 22%
    18:00 +35°C° 0 mm 5 m/s 747 mmHg 22%
    19:00 +35°C° 0 mm 5 m/s 748 mmHg 24%
    20:00 +34°C° 0 mm 5 m/s 748 mmHg 25%
    21:00 +33°C° 0 mm 5 m/s 748 mmHg 26%
    22:00 +32°C° 0 mm 6 m/s 749 mmHg 30%
    23:00 +30°C° 0 mm 7 m/s 749 mmHg 33%

    Après-demain, 9 Juin, Mardi

    Heure Température Précipitation Vent Pression Humidité
    00:00 +31°C° 0 mm 8 m/s 749 mmHg 36%
    01:00 +29°C° 0.1 mm 8 m/s 749 mmHg 37%
    02:00 +29°C° 0.1 mm 7 m/s 749 mmHg 37%
    03:00 +29°C° 0.1 mm 6 m/s 749 mmHg 37%
    04:00 +28°C° 0 mm 6 m/s 749 mmHg 37%
    05:00 +28°C° 0 mm 6 m/s 749 mmHg 38%
    06:00 +27°C° 0 mm 5 m/s 750 mmHg 38%
    07:00 +29°C° 0 mm 5 m/s 750 mmHg 37%
    08:00 +30°C° 0 mm 5 m/s 750 mmHg 36%
    09:00 +32°C° 0 mm 5 m/s 750 mmHg 35%
    10:00 +33°C° 0 mm 4 m/s 750 mmHg 30%
    11:00 +34°C° 0 mm 4 m/s 750 mmHg 25%
    12:00 +35°C° 0 mm 4 m/s 749 mmHg 20%
    13:00 +36°C° 0 mm 5 m/s 749 mmHg 18%
    14:00 +36°C° 0 mm 5 m/s 749 mmHg 16%
    15:00 +38°C° 0 mm 6 m/s 749 mmHg 14%
    16:00 +36°C° 0 mm 6 m/s 749 mmHg 15%
    17:00 +36°C° 0 mm 6 m/s 749 mmHg 16%
    18:00 +35°C° 0 mm 6 m/s 749 mmHg 17%
    19:00 +34°C° 0 mm 5 m/s 750 mmHg 19%
    20:00 +33°C° 0 mm 4 m/s 750 mmHg 22%
    21:00 +33°C° 0 mm 3 m/s 751 mmHg 24%
    22:00 +31°C° 0 mm 3 m/s 751 mmHg 27%
    23:00 +31°C° 0 mm 3 m/s 751 mmHg 30%

    10 Juin, Mercredi

    Heure Température Précipitation Vent Pression Humidité
    00:00 +30°C° 0 mm 3 m/s 751 mmHg 34%
    01:00 +30°C° 0 mm 3 m/s 751 mmHg 37%
    02:00 +29°C° 0 mm 3 m/s 751 mmHg 40%
    03:00 +28°C° 0 mm 3 m/s 751 mmHg 43%
    04:00 +28°C° 0 mm 3 m/s 751 mmHg 46%
    05:00 +27°C° 0 mm 3 m/s 751 mmHg 49%
    06:00 +27°C° 0 mm 3 m/s 752 mmHg 52%
    07:00 +28°C° 0 mm 3 m/s 752 mmHg 50%
    08:00 +28°C° 0 mm 3 m/s 752 mmHg 48%
    09:00 +29°C° 0 mm 3 m/s 752 mmHg 46%
    10:00 +30°C° 0 mm 2 m/s 752 mmHg 42%
    11:00 +31°C° 0 mm 2 m/s 751 mmHg 38%
    12:00 +32°C° 0 mm 2 m/s 751 mmHg 34%
    13:00 +34°C° 0 mm 2 m/s 751 mmHg 31%
    14:00 +35°C° 0 mm 3 m/s 750 mmHg 28%
    15:00 +36°C° 0 mm 3 m/s 750 mmHg 25%
    16:00 +36°C° 0 mm 4 m/s 750 mmHg 24%
    17:00 +35°C° 0 mm 4 m/s 750 mmHg 23%
    18:00 +35°C° 0 mm 5 m/s 750 mmHg 23%
    19:00 +34°C° 0 mm 4 m/s 750 mmHg 21%
    20:00 +34°C° 0 mm 4 m/s 751 mmHg 20%
    21:00 +33°C° 0 mm 3 m/s 751 mmHg 18%
    22:00 +31°C° 0 mm 3 m/s 751 mmHg 22%
    23:00 +30°C° 0 mm 3 m/s 751 mmHg 27%

    11 Juin, Jeudi

    Heure Température Précipitation Vent Pression Humidité
    00:00 +29°C° 0 mm 2 m/s 751 mmHg 31%
    01:00 +28°C° 0.1 mm 3 m/s 751 mmHg 36%
    02:00 +28°C° 0.1 mm 4 m/s 751 mmHg 42%
    03:00 +27°C° 0.1 mm 5 m/s 751 mmHg 48%
    04:00 +26°C° 0 mm 5 m/s 751 mmHg 50%
    05:00 +26°C° 0 mm 5 m/s 751 mmHg 53%
    06:00 +26°C° 0 mm 4 m/s 751 mmHg 55%
    07:00 +27°C° 0 mm 4 m/s 751 mmHg 52%
    08:00 +27°C° 0 mm 4 m/s 751 mmHg 49%
    09:00 +28°C° 0 mm 3 m/s 751 mmHg 45%
    10:00 +29°C° 0 mm 3 m/s 751 mmHg 42%
    11:00 +30°C° 0 mm 2 m/s 750 mmHg 38%
    12:00 +31°C° 0 mm 2 m/s 750 mmHg 35%
    13:00 +32°C° 0 mm 2 m/s 749 mmHg 33%
    14:00 +34°C° 0 mm 2 m/s 749 mmHg 31%
    15:00 +33°C° 0 mm 1 m/s 748 mmHg 29%
    16:00 +34°C° 0 mm 2 m/s 748 mmHg 29%
    17:00 +34°C° 0 mm 3 m/s 748 mmHg 30%
    18:00 +34°C° 0 mm 4 m/s 747 mmHg 30%
    19:00 +34°C° 0 mm 4 m/s 748 mmHg 31%
    20:00 +34°C° 0 mm 4 m/s 748 mmHg 32%
    21:00 +33°C° 0 mm 4 m/s 748 mmHg 33%
    22:00 +33°C° 0 mm 4 m/s 748 mmHg 33%
    23:00 +32°C° 0 mm 4 m/s 747 mmHg 34%

    12 Juin, Vendredi

    Heure Température Précipitation Vent Pression Humidité
    00:00 +32°C° 0 mm 4 m/s 747 mmHg 35%
    01:00 +31°C° 0 mm 3 m/s 747 mmHg 36%
    02:00 +30°C° 0 mm 3 m/s 747 mmHg 36%
    03:00 +30°C° 0 mm 3 m/s 746 mmHg 37%
    04:00 +30°C° 0 mm 4 m/s 747 mmHg 37%
    05:00 +29°C° 0 mm 5 m/s 747 mmHg 38%
    06:00 +29°C° 0 mm 7 m/s 747 mmHg 38%
    07:00 +32°C° 0 mm 7 m/s 747 mmHg 35%
    08:00 +33°C° 0 mm 7 m/s 747 mmHg 33%
    09:00 +34°C° 0 mm 7 m/s 747 mmHg 30%
    10:00 +35°C° 0 mm 7 m/s 746 mmHg 28%
    11:00 +36°C° 0 mm 7 m/s 746 mmHg 25%
    12:00 +38°C° 0 mm 7 m/s 746 mmHg 23%
    13:00 +39°C° 0 mm 6 m/s 745 mmHg 22%
    14:00 +40°C° 0 mm 5 m/s 744 mmHg 20%
    15:00 +39°C° 0 mm 3 m/s 743 mmHg 19%
    16:00 +39°C° 0 mm 3 m/s 743 mmHg 19%
    17:00 +39°C° 0 mm 3 m/s 743 mmHg 19%
    18:00 +39°C° 0 mm 3 m/s 743 mmHg 19%
    19:00 +38°C° 0 mm 6 m/s 744 mmHg 19%
    20:00 +37°C° 0 mm 10 m/s 745 mmHg 20%
    21:00 +34°C° 0 mm 14 m/s 746 mmHg 20%
    22:00 +33°C° 0 mm 12 m/s 746 mmHg 22%
    23:00 +32°C° 0 mm 11 m/s 746 mmHg 23%
    Voir plus